Weather reports worldwide

Advertisment
Geisenheim, Germany (10628): temperature & dewpoint: 07.12.2018 10:00:00 - 13.12.2018 10:00:00 (CET)Geisenheim, Germany (10628): temperature 5cm & temperature -5cm: 07.12.2018 10:00:00 - 13.12.2018 10:00:00 (CET)Geisenheim, Germany (10628): temperature -20cm & temperature -100cm: 07.12.2018 10:00:00 - 13.12.2018 10:00:00 (CET)Geisenheim, Germany (10628): wind speed & gusts: 07.12.2018 10:00:00 - 13.12.2018 10:00:00 (CET)Geisenheim, Germany (10628): wind direction: 07.12.2018 10:00:00 - 13.12.2018 10:00:00 (CET)Geisenheim, Germany (10628): reduced air pressure: 07.12.2018 10:00:00 - 13.12.2018 10:00:00 (CET)Geisenheim, Germany (10628): visibility: 07.12.2018 10:00:00 - 13.12.2018 10:00:00 (CET)Geisenheim, Germany (10628): sunshine duration: 07.12.2018 10:00:00 - 13.12.2018 10:00:00 (CET)Geisenheim, Germany (10628): precipitation: 07.12.2018 10:00:00 - 13.12.2018 10:00:00 (CET)
Date & Time tt [°C] td [°C] tt 5cm [°C] tt -5cm [°C] tt -20cm [°C] tt -100cm [°C] ff [km/h] ff [kn] fx [km/h] fx [kn] dd ppp [hPa] vv [km] sd [min] rr [mm]
13.12.2018 10:00:00 1,4 -3,6 0,5 0,7 3,4 8,7 14 7 29 16 ENE 1020,8 37 60 0,0
13.12.2018 09:00:00 0,9 -3,3 0,0 0,7 3,4 8,7 14 8 25 13 ENE 1020,8 39 9 0,0
13.12.2018 08:00:00 0,9 -2,4 -0,7 0,7 3,5 8,7 10 5 27 15 ENE 1020,6 36 0 0,0
13.12.2018 07:00:00 1,4 -2,0 -0,5 0,8 3,6 8,8 9 5 27 14 E 1020,7 43 0 0,0
13.12.2018 06:00:00 1,6 -1,8 -0,1 0,8 3,7 8,8 9 5 15 8 ENE 1020,8 51 0 0,0
13.12.2018 05:00:00 1,4 -2,6 -0,1 0,8 3,8 8,8 6 3 12 6 ENE 1021,3 53 0 0,0
13.12.2018 04:00:00 1,5 -2,4 -1,0 0,8 3,9 8,8 7 4 16 9 ENE 1021,9 65 0 0,0
13.12.2018 03:00:00 1,7 -1,1 -0,6 0,8 4,1 8,8 6 4 19 10 NE 1022,2 53 0 0,0
13.12.2018 02:00:00 2,3 -0,4 -0,8 1,6 4,1 8,8 4 2 9 5 ENE 1022,5 69 0 0,0
13.12.2018 01:00:00 2,5 -0,2 1,0 1,9 4,2 8,8 5 3 6 3 NE 1022,9 64 0 0,0
13.12.2018 00:00:00 2,2 -0,7 1,3 1,8 4,3 8,8 5 3 6 3 NNW 1023,3 75 0 0,0
12.12.2018 23:00:00 2,8 -1,1 0,8 1,6 4,5 8,9 4 2 10 5 ENE 1023,5 64 0 0,0
12.12.2018 22:00:00 2,9 -1,6 1,3 1,7 4,7 8,9 6 3 12 7 ENE 1023,7 73 0 0,0
12.12.2018 21:00:00 2,6 -1,8 -0,3 1,8 4,8 8,9 5 3 15 8 ENE 1023,8 63 0 0,0
12.12.2018 20:00:00 3,4 -1,2 1,2 2,7 4,9 8,9 7 4 20 11 ENE 1023,8 59 0 0,0
12.12.2018 19:00:00 3,9 -0,2 3,2 3,4 5,0 8,9 5 3 10 6 NE 1023,9 63 0 0,0
12.12.2018 18:00:00 3,6 -0,2 2,6 3,6 5,0 8,9 7 4 11 6 N 1024,0 51 0 0,0
12.12.2018 17:00:00 4,1 -0,1 3,1 4,0 5,0 8,9 6 4 15 8 NNE 1023,9 49 14 0,0
12.12.2018 16:00:00 4,7 0,0 4,4 5,0 4,9 8,9 9 5 14 8 NNE 1023,8 71 44 0,0
12.12.2018 15:00:00 5,6 -0,6 6,0 5,6 4,7 9,0 5 3 13 7 NNE 1023,9 75 9 0,0
12.12.2018 14:00:00 5,3 -0,4 5,6 5,4 4,5 9,0 6 4 13 7 ENE 1024,4 71 0 0,0
12.12.2018 13:00:00 5,1 0,2 5,6 5,0 4,3 9,0 5 3 11 6 E 1024,8 48 2 0,0
12.12.2018 12:00:00 4,7 1,0 4,8 4,2 4,2 9,0 7 4 11 6 N 1025,4 46 0 0,0
12.12.2018 11:00:00 4,4 1,1 4,5 3,5 4,1 9,0 5 3 9 5 N 1025,6 33 2 0,0
12.12.2018 10:00:00 3,6 1,2 3,7 2,3 4,2 9,0 5 3 13 7 NW 1025,5 21 14 0,0
12.12.2018 09:00:00 2,0 0,6 1,4 1,6 4,3 9,0 11 6 16 9 N 1025,4 13 0 0,0
12.12.2018 08:00:00 2,7 0,8 1,5 1,8 4,4 9,0 6 4 16 9 NNW 1025,1 15 0 0,0
12.12.2018 07:00:00 2,6 1,0 1,4 1,7 4,5 9,1 12 7 17 9 NNW 1024,9 16 0 0,0
12.12.2018 06:00:00 3,3 1,0 1,0 2,4 4,6 9,1 5 3 14 7 NNW 1024,7 19 0 0,0
12.12.2018 05:00:00 3,8 1,4 2,6 2,8 4,6 9,1 4 2 9 5 N 1024,6 20 0 0,0
12.12.2018 04:00:00 3,8 1,5 2,9 3,0 4,6 9,1 7 4 10 6 W 1024,6 16 0 0,0
12.12.2018 03:00:00 3,5 1,4 1,9 2,9 4,6 9,1 4 2 10 6 W 1024,5 17 0 0,0
12.12.2018 02:00:00 4,3 1,6 3,2 3,1 4,6 9,1 4 2 11 6 WNW 1024,5 23 0 0,0
12.12.2018 01:00:00 4,3 1,4 3,3 2,9 4,7 9,1 6 3 12 7 SW 1024,5 29 0 0,0
12.12.2018 00:00:00 4,2 1,5 2,8 2,9 4,7 9,1 5 3 16 9 W 1024,3 27 0 0,0
11.12.2018 23:00:00 4,3 1,6 3,2 2,9 4,7 9,1 12 6 21 11 WSW 1024,1 34 0 0,0
11.12.2018 22:00:00 3,9 1,4 2,6 2,6 4,8 9,2 7 4 10 5 WSW 1024,2 42 0 0,0
11.12.2018 21:00:00 3,7 1,6 2,2 2,5 4,9 9,2 4 2 14 8 S 1024,2 42 0 0,0
11.12.2018 20:00:00 3,2 1,6 2,1 2,1 5,1 9,2 5 3 23 12 SSW 1024,6 40 0 0,0
11.12.2018 19:00:00 2,3 1,0 0,7 2,2 5,3 9,2 12 7 14 8 NNW 1024,7 41 0 0,0
11.12.2018 18:00:00 2,9 1,3 0,0 2,6 5,4 9,2 4 2 16 9 WSW 1024,3 47 0 0,0
11.12.2018 17:00:00 3,3 1,2 1,2 3,3 5,5 9,2 10 5 22 12 NW 1024,2 54 0 0,0
11.12.2018 16:00:00 4,0 1,7 2,8 4,4 5,5 9,2 14 8 37 20 NW 1023,8 45 19 0,0
11.12.2018 15:00:00 4,5 1,9 4,4 5,4 5,4 9,2 26 14 36 19 NW 1023,7 72 24 0,5
11.12.2018 14:00:00 5,3 2,1 5,2 5,9 5,2 9,2 24 13 40 22 NW 1023,7 16 27 0,0
11.12.2018 13:00:00 5,8 2,0 6,8 5,0 5,1 9,2 19 10 36 19 WNW 1023,9 55 15 0,0
11.12.2018 12:00:00 5,5 2,0 5,9 5,8 4,9 9,3 23 12 37 20 WNW 1024,2 43 53 0,0
11.12.2018 11:00:00 4,9 2,1 5,1 4,6 4,8 9,3 18 10 24 13 W 1024,7 51 37 0,0
11.12.2018 10:00:00 3,3 1,7 2,8 3,4 4,8 9,3 11 6 24 13 W 1024,7 24 0 0,2
11.12.2018 09:00:00 3,7 2,1 3,0 3,1 4,8 9,3 6 3 19 10 W 1024,3 41 0 0,1
11.12.2018 08:00:00 3,8 1,8 2,9 3,0 4,8 9,3 9 5 19 11 W 1023,9 24 0 0,1
11.12.2018 07:00:00 3,5 2,1 2,6 2,8 4,8 9,3 6 3 13 7 W 1023,7 43 0 0,0
11.12.2018 06:00:00 3,2 2,1 2,0 2,8 4,9 9,3 5 3 8 5 WSW 1024,0 25 0 0,6
11.12.2018 05:00:00 3,4 1,8 2,4 2,6 4,9 9,3 5 3 23 13 W 1023,9 25 0 0,3
11.12.2018 04:00:00 3,7 1,7 2,7 2,6 5,0 9,3 9 5 24 13 W 1024,0 19 0 0,2
11.12.2018 03:00:00 4,0 1,1 2,6 2,4 5,1 9,3 16 8 24 13 WNW 1023,9 31 0 0,0
11.12.2018 02:00:00 4,0 1,1 2,4 2,2 5,2 9,3 10 5 32 17 W 1023,6 14 0 0,1
11.12.2018 01:00:00 4,0 0,4 2,5 2,2 5,4 9,3 16 9 37 20 NW 1023,3 47 0 0,0
11.12.2018 00:00:00 4,3 0,4 3,4 2,3 5,6 9,3 21 11 35 19 NW 1023,3 42 0 0,0
10.12.2018 23:00:00 4,0 0,3 2,7 2,5 5,7 9,4 19 10 36 19 NW 1023,3 49 0 0,0
10.12.2018 22:00:00 4,1 0,5 2,2 2,8 5,9 9,4 21 11 37 20 NW 1023,1 45 0 0,0
10.12.2018 21:00:00 4,6 0,6 2,9 3,1 6,1 9,4 23 13 41 22 NW 1022,9 48 0 0,0
10.12.2018 20:00:00 4,5 0,7 2,8 3,5 6,2 9,4 21 12 36 19 NW 1023,1 54 0 0,0
10.12.2018 19:00:00 4,7 1,4 3,4 4,1 6,3 9,4 13 7 27 15 WNW 1023,1 54 0 0,0
10.12.2018 18:00:00 4,6 1,5 3,2 4,8 6,4 9,4 15 8 36 19 WNW 1022,6 45 0 0,4
10.12.2018 17:00:00 4,6 2,5 3,8 5,4 6,4 9,4 22 12 40 22 NNW 1022,5 12 14 0,3
10.12.2018 16:00:00 7,3 0,5 6,8 6,1 6,3 9,4 19 11 42 23 W 1021,2 56 60 0,0
10.12.2018 15:00:00 7,5 1,1 7,5 6,2 6,2 9,4 23 12 45 24 WNW 1021,4 58 24 0,0
10.12.2018 14:00:00 6,9 1,7 6,5 6,0 6,1 9,4 17 9 42 23 W 1021,5 61 6 0,0
10.12.2018 13:00:00 6,7 1,2 6,0 6,2 6,1 9,4 29 16 44 24 WNW 1022,2 46 26 0,0
10.12.2018 12:00:00 5,4 2,1 5,2 5,2 6,1 9,4 16 9 36 19 W 1022,7 28 0 0,0
10.12.2018 11:00:00 5,6 2,0 5,0 4,7 6,1 9,4 16 9 35 19 WNW 1022,8 56 10 0,0
10.12.2018 10:00:00 5,3 1,8 4,1 4,1 6,2 9,4 13 7 27 15 W 1022,1 55 14 0,0
10.12.2018 09:00:00 4,6 1,6 3,3 4,2 6,3 9,4 18 10 34 18 WNW 1021,7 75 0 0,4
10.12.2018 08:00:00 5,0 1,7 3,7 4,2 6,3 9,4 23 12 40 21 WNW 1021,1 25 0 0,1
10.12.2018 07:00:00 5,3 2,2 3,9 4,5 6,4 9,4 11 6 26 14 WNW 1020,5 38 0 0,5
10.12.2018 06:00:00 5,7 2,0 4,3 4,3 6,6 9,4 16 9 26 14 WNW 1020,0 32 0 0,0
10.12.2018 05:00:00 5,1 2,0 2,6 4,3 6,7 9,4 10 5 24 13 W 1019,3 44 0 0,0
10.12.2018 04:00:00 6,0 2,3 4,2 4,8 6,8 9,4 14 7 31 17 W 1018,7 48 0 0,1
10.12.2018 03:00:00 5,7 2,8 4,0 5,0 6,9 9,4 17 9 29 16 W 1018,1 12 0 0,4
10.12.2018 02:00:00 5,8 3,1 4,7 5,2 7,0 9,4 14 7 34 19 WNW 1017,4 18 0 1,1
10.12.2018 01:00:00 6,0 3,5 4,9 5,3 7,1 9,4 14 8 37 20 NNW 1016,8 13 0 0,0
10.12.2018 00:00:00 6,3 2,9 4,7 5,3 7,2 9,4 21 11 33 18 W 1015,7 37 0 0,0
09.12.2018 23:00:00 6,5 3,4 5,0 5,6 7,3 9,4 14 8 41 22 W 1014,8 27 0 0,8
09.12.2018 22:00:00 5,8 2,9 4,7 5,9 7,4 9,4 29 16 48 26 NW 1013,8 9 0 2,1
09.12.2018 21:00:00 7,6 3,8 5,9 6,0 7,5 9,4 17 9 46 25 W 1012,1 32 0 0,0
09.12.2018 20:00:00 7,7 3,5 6,3 6,0 7,6 9,4 23 12 36 19 WNW 1010,9 56 0 0,0
09.12.2018 19:00:00 7,8 4,4 5,9 6,0 7,7 9,4 16 9 32 18 W 1009,3 59 0 0,0
09.12.2018 18:00:00 6,8 4,5 4,7 6,5 7,7 9,4 9 5 42 23 WNW 1007,9 70 0 0,7
09.12.2018 17:00:00 7,8 5,0 6,5 7,4 7,7 9,4 24 13 42 23 NW 1006,2 15 0 0,8
09.12.2018 16:00:00 8,6 5,4 7,1 8,0 7,6 9,4 11 6 31 17 W 1004,5 25 0 0,2
09.12.2018 15:00:00 8,6 5,8 7,6 8,4 7,5 9,4 12 7 39 21 WNW 1003,3 10 13 0,7
09.12.2018 14:00:00 9,7 5,6 10,8 8,4 7,4 9,4 25 14 38 21 W 1002,0 39 39 0,0
09.12.2018 13:00:00 8,2 4,4 7,3 7,3 7,3 9,4 26 14 46 25 WSW 1002,2 60 2 0,0
09.12.2018 12:00:00 8,8 4,7 8,6 7,4 7,2 9,4 21 12 45 24 W 1002,3 64 1 0,0
09.12.2018 11:00:00 8,6 4,2 8,2 6,8 7,2 9,4 29 16 50 27 W 1002,5 75 0 0,0
09.12.2018 10:00:00 8,4 4,6 7,3 6,3 7,3 9,4 22 12 33 18 W 1002,4 29 0 0,0
09.12.2018 09:00:00 8,4 4,1 7,2 5,8 7,4 9,4 17 9 40 21 W 1001,8 50 0 0,0
09.12.2018 08:00:00 8,1 4,5 6,1 5,8 7,5 9,4 23 12 37 20 W 1000,7 43 0 0,0
09.12.2018 07:00:00 7,5 4,5 5,2 5,9 7,6 9,4 6 3 26 14 WSW 1000,2 49 0 0,1
09.12.2018 06:00:00 7,2 4,1 5,7 6,5 7,7 9,4 16 9 66 36 W 1000,0 23 0 2,8
09.12.2018 05:00:00 8,2 4,5 6,3 6,8 7,8 9,4 36 19 60 33 W 999,4 5 0 1,7
09.12.2018 04:00:00 8,3 4,7 6,2 7,2 7,8 9,4 24 13 53 28 WNW 999,2 54 0 0,3
09.12.2018 03:00:00 9,7 5,6 7,6 7,3 7,8 9,4 24 13 52 28 W 998,5 50 0 0,3
09.12.2018 02:00:00 10,4 5,2 9,1 7,3 7,8 9,4 34 19 52 28 W 998,9 32 0 0,0
09.12.2018 01:00:00 9,6 5,4 8,2 7,8 7,8 9,4 24 13 50 27 W 999,0 66 0 1,4
09.12.2018 00:00:00 9,2 8,2 8,5 7,9 7,8 9,4 16 9 32 18 SW 999,4 11 0 0,7
08.12.2018 23:00:00 9,1 8,0 8,2 7,6 7,7 9,4 14 8 24 13 SW 1000,5 8 0 0,5
08.12.2018 22:00:00 8,8 7,4 7,8 7,5 7,7 9,4 17 9 32 18 SW 1002,2 45 0 0,0
08.12.2018 21:00:00 8,1 7,0 7,4 7,3 7,8 9,4 19 10 36 19 SW 1004,1 14 0 0,3
08.12.2018 20:00:00 8,1 6,7 7,2 7,3 7,8 9,4 21 11 41 22 SW 1005,4 21 0 0,4
08.12.2018 19:00:00 9,1 5,6 8,3 7,3 7,8 9,4 24 13 46 25 WSW 1006,7 48 0 0,0
08.12.2018 18:00:00 8,5 5,3 7,5 7,3 7,8 9,4 13 7 29 16 SW 1007,6 56 0 0,0
08.12.2018 17:00:00 8,2 5,4 7,1 7,4 7,8 9,4 17 9 35 19 SW 1008,2 63 0 0,0
08.12.2018 16:00:00 8,6 5,2 7,1 8,0 7,8 9,4 13 7 29 15 SW 1008,4 68 3 0,0
08.12.2018 15:00:00 8,2 5,9 7,5 8,3 7,6 9,4 16 8 34 18 SW 1008,7 75 0 0,1
08.12.2018 14:00:00 8,3 5,3 7,5 8,7 7,4 9,4 19 11 43 23 WSW 1008,7 61 14 0,3
08.12.2018 13:00:00 8,6 4,6 8,3 9,3 7,2 9,4 29 15 49 26 WSW 1008,7 75 44 0,0
08.12.2018 12:00:00 9,1 5,4 10,0 8,1 7,1 9,4 21 11 34 19 WSW 1008,8 46 30 0,0
08.12.2018 11:00:00 6,7 4,7 6,1 6,3 7,1 9,4 16 9 36 20 WSW 1009,4 53 3 0,8
08.12.2018 10:00:00 6,8 4,0 6,5 5,9 7,1 9,4 23 13 40 21 SW 1009,6 42 6 0,2
08.12.2018 09:00:00 6,7 3,6 5,5 5,7 7,1 9,4 26 14 43 23 WSW 1010,0 19 0 0,1
08.12.2018 08:00:00 7,2 3,3 6,2 5,7 7,2 9,3 24 13 39 21 WSW 1010,2 29 0 0,0
08.12.2018 07:00:00 6,7 3,5 5,7 5,6 7,3 9,3 17 9 33 18 WSW 1010,4 57 0 0,0
08.12.2018 06:00:00 6,7 3,0 6,2 5,4 7,4 9,3 19 11 30 16 WSW 1010,6 61 0 0,0
08.12.2018 05:00:00 6,8 2,7 5,4 5,4 7,5 9,3 13 7 23 12 SW 1010,7 68 0 0,0
08.12.2018 04:00:00 6,5 3,5 5,5 5,5 7,7 9,3 8 4 24 13 SSW 1010,8 59 0 0,0
08.12.2018 03:00:00 7,2 3,2 5,9 5,5 7,8 9,3 14 7 40 21 WSW 1010,6 29 0 0,0
08.12.2018 02:00:00 7,7 2,5 6,5 5,8 8,0 9,3 17 9 29 16 SW 1010,0 46 0 0,0
08.12.2018 01:00:00 7,8 2,9 6,2 6,1 8,2 9,3 14 8 29 16 WSW 1009,9 47 0 0,0
08.12.2018 00:00:00 8,1 2,9 7,0 6,3 8,4 9,3 16 9 27 14 W 1009,3 51 0 0,0
07.12.2018 23:00:00 7,7 3,0 6,0 6,4 8,5 9,3 16 8 46 25 W 1008,3 53 0 0,0
07.12.2018 22:00:00 8,5 3,2 7,3 7,3 8,6 9,3 31 17 60 33 WNW 1006,5 70 0 0,0
07.12.2018 21:00:00 9,1 4,7 7,4 8,3 8,7 9,3 26 14 53 29 W 1004,8 74 0 0,3
07.12.2018 20:00:00 9,7 8,2 8,7 8,7 8,7 9,3 17 9 32 17 SW 1002,3 32 0 1,1
07.12.2018 19:00:00 9,9 7,9 8,7 8,7 8,7 9,3 16 9 32 18 WSW 1003,1 27 0 0,5
07.12.2018 18:00:00 10,3 7,1 9,2 8,8 8,7 9,3 21 11 41 22 SW 1004,1 42 0 0,0
07.12.2018 17:00:00 10,6 7,2 10,0 9,1 8,7 9,3 13 7 50 27 SW 1005,5 75 0 0,0
07.12.2018 16:00:00 10,7 8,0 9,7 9,4 8,7 9,3 18 10 33 18 SSW 1006,8 24 0 0,0
07.12.2018 15:00:00 11,5 7,5 10,9 9,5 8,6 9,3 18 10 35 19 SSW 1007,6 67 0 0,0
07.12.2018 14:00:00 11,4 7,9 10,6 9,4 8,6 9,3 16 8 29 16 SW 1009,0 75 0 0,0
07.12.2018 13:00:00 11,7 7,5 11,1 9,4 8,6 9,3 20 11 36 20 WSW 1010,5 69 0 0,0
07.12.2018 12:00:00 11,5 8,1 10,9 9,4 8,5 9,3 16 9 39 21 WSW 1012,1 51 0 0,0
07.12.2018 11:00:00 11,6 8,0 11,1 9,4 8,5 9,3 23 12 40 21 WSW 1013,0 47 0 0,0
07.12.2018 10:00:00 11,8 7,7 11,2 9,2 8,4 9,3 16 9 26 14 WSW 1013,5 50 0 0,0

tt = temperature
td = dewpoint
tt 5cm = temperature 5cm
tt -5cm = temperature -5cm
tt -20cm = temperature -20cm
tt -100cm = temperature -100cm
ff = wind speed
fx = gusts
dd = wind direction
ppp = reduced air pressure
vv = visibility
sd = sunshine duration
rr = precipitation

Next stations